[[{"header":{"parameterUnit":"m.s-1","parameterCategory":1,"la1":30.2991,"la2":30.254,"lo1":-89.0895,"lo2":-89.0444,"dy":0.0017,"dx":0.0017,"nx":28,"ny":28,"refTime":"2023-11-08T03:00:00:Z","depth":0,"parameterNumber":2,"parameterNumberName":"U-component_of_WINDS"},"data":[0,0,0,0,0,0,0,0,0,0,0,0,0,0,0,0,0,0,0,0,0,0,0,0,0,0,0,0,0,0,0,0,0,0,0,0,0,0,0,0,0,0,0,0,0,0,0,0,0,0,0,0,0,0,0,0,0,0,-0.7351,-0.7351,0,-0.7382,-0.7382,-0.7383,-0.7379,-0.7379,-0.7378,-0.7378,-0.7409,-0.741,-0.7412,0,0,0,0,0,0,0,0,0,0,0,0,0,-0.7288,-0.7289,-0.7351,-0.7351,-0.7352,-0.7382,-0.7382,-0.7383,-0.7379,-0.7379,-0.7378,-0.7378,-0.7409,-0.741,-0.7412,0,0,0,0,0,0,0,0,0,0,0,0,0,-0.7317,-0.729,-0.7351,-0.7354,-0.7354,-0.7382,-0.7382,-0.7383,-0.7379,-0.7379,-0.7378,-0.7377,-0.7408,-0.741,-0.7412,-0.7439,0,0,-0.7418,-0.7419,0,0,0,0,0,0,0,0,-0.7315,-0.7319,-0.7353,-0.7354,-0.7354,-0.7376,-0.7372,-0.7402,-0.738,-0.737,-0.7378,-0.7377,-0.7399,-0.7401,-0.7409,-0.744,-0.7442,-0.7418,-0.7419,-0.742,-0.7421,0,0,0,0,0,0,0,-0.7313,-0.7318,-0.7363,-0.7353,-0.7354,-0.7353,-0.7356,-0.7377,-0.7388,-0.7371,-0.737,-0.7374,-0.7399,-0.7407,-0.7409,-0.7442,-0.7418,-0.742,-0.7421,-0.7422,-0.7496,-0.7497,0,0,0,0,0,0,-0.7311,-0.7316,-0.7362,-0.7364,-0.7333,-0.7355,-0.7359,-0.737,-0.7388,-0.739,-0.7375,-0.7374,-0.7404,-0.7407,-0.7411,-0.7442,-0.742,-0.7422,-0.7423,-0.7495,-0.7496,-0.7497,0,0,0,0,0,0,-0.7309,-0.7315,-0.7361,-0.734,-0.7346,-0.7357,-0.7369,-0.7371,-0.7379,-0.7391,-0.7393,-0.7381,-0.7404,-0.7408,-0.7432,-0.7443,-0.7423,-0.7425,-0.7494,-0.7495,-0.7496,-0.7506,0,0,0,0,0,0,-0.7308,-0.7314,-0.7325,-0.734,-0.7347,-0.7382,-0.737,-0.7372,-0.7382,-0.7381,-0.7397,-0.7399,-0.7403,-0.7429,-0.7433,-0.7446,-0.7426,-0.7493,-0.7495,-0.7496,-0.7505,-0.7507,-0.751,0,0,0,0,0,-0.7305,-0.7326,-0.7325,-0.7331,-0.736,-0.7382,-0.7386,-0.739,-0.7383,-0.7393,-0.7401,-0.7399,-0.7441,-0.7431,-0.7437,-0.7449,-0.7492,-0.7494,-0.7496,-0.7504,-0.7507,-0.751,0,0,0,0,0,0,-0.7312,-0.7329,-0.7328,-0.7354,-0.7367,-0.7382,-0.7395,-0.7394,-0.7409,-0.7407,-0.7412,-0.7416,-0.7439,-0.7447,-0.7435,-0.7476,-0.7466,-0.7469,-0.747,-0.7473,-0.7475,-0.7473,-0.7428,0,0,0,0,0,-0.7316,-0.7333,-0.7347,-0.7369,-0.7375,-0.7384,-0.7394,-0.7396,-0.7409,-0.7415,-0.7424,-0.7437,-0.7453,-0.7464,-0.7479,-0.7506,-0.7509,-0.7517,-0.752,-0.7522,-0.7524,-0.7538,-0.7542,-0.7503,-0.7503,-0.7503,0,0,-0.7326,-0.7337,-0.7347,-0.737,-0.7381,-0.7397,-0.7389,-0.7407,-0.7419,-0.7417,-0.744,-0.7447,-0.7462,-0.7487,-0.7499,-0.7494,-0.7536,-0.7524,-0.7526,-0.7527,-0.754,-0.7544,-0.7547,-0.7504,-0.7504,-0.7504,0,0,-0.7352,-0.7362,-0.7381,-0.7392,-0.7407,-0.7412,-0.7417,-0.7432,-0.7437,-0.746,-0.7459,-0.7473,-0.7501,-0.7511,-0.752,-0.755,-0.7547,-0.7555,-0.7567,-0.7581,-0.7584,-0.7586,-0.7596,-0.7599,-0.7557,-0.7557,-0.7557,0,-0.7361,-0.7387,-0.7391,-0.741,-0.7419,-0.7419,-0.7438,-0.7448,-0.7467,-0.7474,-0.7469,-0.7503,-0.7513,-0.754,-0.7547,-0.7555,-0.756,-0.7552,-0.7583,-0.7586,-0.7588,-0.7597,-0.7601,-0.7558,-0.7558,-0.7557,-0.7557,0,-0.7397,-0.7415,-0.7429,-0.7447,-0.7459,-0.7478,-0.7485,-0.7496,-0.7497,-0.7503,-0.7526,-0.7538,-0.7556,-0.7563,-0.7564,-0.759,-0.7586,-0.7582,-0.7572,-0.7593,-0.7601,-0.7605,-0.7559,-0.7558,-0.7558,-0.7558,0,0,-0.7427,-0.7449,-0.7453,-0.7461,-0.7478,-0.7492,-0.751,-0.7528,-0.7537,-0.755,-0.7565,-0.7589,-0.7585,-0.7595,-0.7598,-0.761,-0.7631,-0.7604,-0.7604,-0.7608,-0.7659,-0.7661,-0.7665,-0.763,-0.7631,-0.7631,-0.7657,0,-0.7454,-0.7487,-0.7491,-0.752,-0.7536,-0.7535,-0.7551,-0.7563,-0.7569,-0.7583,-0.759,-0.7606,-0.7601,-0.7606,-0.7618,-0.7626,-0.7641,-0.7624,-0.7643,-0.7644,-0.7639,-0.7669,-0.7672,-0.7696,-0.766,-0.7661,-0.7661,0,-0.7489,-0.7503,-0.7534,-0.7548,-0.7554,-0.7569,-0.7584,-0.7598,-0.7611,-0.7615,-0.7626,-0.7627,-0.7646,-0.7636,-0.7661,-0.765,-0.7658,-0.7663,-0.7664,-0.7665,-0.7653,-0.767,-0.7704,-0.7707,-0.7667,-0.7666,-0.7666,0,-0.7507,-0.7534,-0.7555,-0.7562,-0.7579,-0.7589,-0.7597,-0.7609,-0.7619,-0.7633,-0.7639,-0.7655,-0.7664,-0.7676,-0.7681,-0.7674,-0.7706,-0.7697,-0.7709,-0.7709,-0.7715,-0.7714,-0.7749,-0.7722,-0.7722,-0.7722,-0.7722,0,-0.7535,-0.7553,-0.7563,-0.7576,-0.7596,-0.7601,-0.7621,-0.7628,-0.764,-0.7654,-0.7655,-0.7668,-0.7674,-0.7688,-0.7693,-0.7712,-0.7717,-0.7719,-0.772,-0.7719,-0.7718,-0.7724,-0.7722,-0.7723,-0.7723,-0.7722,-0.7722,0,-0.7558,-0.7565,-0.7588,-0.7603,-0.7607,-0.7621,-0.7633,-0.7645,-0.7651,-0.7669,-0.7674,-0.7683,-0.77,-0.7706,-0.7727,-0.773,-0.7752,-0.7752,-0.7747,-0.7747,-0.7759,-0.7757,-0.7797,-0.7802,-0.7773,-0.7773,-0.7773,0,-0.7575,-0.7589,-0.7605,-0.7614,-0.7622,-0.7638,-0.7648,-0.7653,-0.7664,-0.7679,-0.769,-0.7706,-0.772,-0.7746,-0.7755,-0.777,-0.777,-0.7783,-0.7772,-0.777,-0.7769,-0.7767,-0.7768,-0.7784,-0.7785,-0.7785,-0.7785,0,-0.7605,-0.7607,-0.7622,-0.7637,-0.7649,-0.7662,-0.7674,-0.7682,-0.7689,-0.7701,-0.7718,-0.7728,-0.7749,-0.7765,-0.7781,-0.7788,-0.7788,-0.7788,-0.7792,-0.779,-0.7787,-0.7788,-0.7752,-0.7787,-0.7787,-0.7787,-0.7787,-0.7787,-0.7624,-0.7636,-0.7649,-0.7665,-0.7675,-0.7686,-0.7698,-0.7706,-0.772,-0.7737,-0.774,-0.7758,-0.777,-0.7791,-0.7799,-0.7813,-0.781,-0.7815,-0.7816,-0.7817,-0.7817,-0.7785,-0.7816,-0.7816,-0.7816,-0.7816,-0.7816,0,-0.7653,-0.7661,-0.7676,-0.7693,-0.7705,-0.7704,-0.7717,-0.7728,-0.7743,-0.7755,-0.7768,-0.7787,-0.7803,-0.7813,-0.7828,-0.7837,-0.7837,-0.7841,-0.784,-0.7841,-0.782,-0.7815,-0.7841,-0.7841,-0.7841,-0.7841,-0.7841,-0.7841,-0.7669,-0.7689,-0.7694,-0.7718,-0.7726,-0.7744,-0.7751,-0.7762,-0.7771,-0.7792,-0.7805,-0.7811,-0.7822,-0.7838,-0.7852,-0.7855,-0.786,-0.7864,-0.7866,-0.7846,-0.7843,-0.7841,-0.7836,-0.7865,-0.7865,-0.7886,-0.7886,-0.7886]},{"header":{"parameterUnit":"m.s-1","parameterCategory":1,"la1":30.2991,"la2":30.254,"lo1":-89.0895,"lo2":-89.0444,"dy":0.0017,"dx":0.0017,"nx":28,"ny":28,"refTime":"2023-11-08T03:00:00:Z","depth":0,"parameterNumber":3,"parameterNumberName":"V-component_of_WINDS"},"data":[0,0,0,0,0,0,0,0,0,0,0,0,0,0,0,0,0,0,0,0,0,0,0,0,0,0,0,0,0,0,0,0,0,0,0,0,0,0,0,0,0,0,0,0,0,0,0,0,0,0,0,0,0,0,0,0,0,0,0.2896,0.2896,0,0.2901,0.2901,0.2901,0.2886,0.2886,0.2885,0.2885,0.2892,0.2892,0.2893,0,0,0,0,0,0,0,0,0,0,0,0,0,0.2873,0.2874,0.2896,0.2896,0.2896,0.2901,0.2901,0.2901,0.2886,0.2886,0.2885,0.2885,0.2891,0.2892,0.2893,0,0,0,0,0,0,0,0,0,0,0,0,0,0.2881,0.2874,0.2896,0.2889,0.2888,0.2901,0.2901,0.2902,0.2886,0.2886,0.2885,0.2884,0.2891,0.2892,0.2893,0.2913,0,0,0.2896,0.2896,0,0,0,0,0,0,0,0,0.2881,0.2882,0.289,0.2889,0.2889,0.2892,0.2896,0.2905,0.2887,0.2887,0.2885,0.2884,0.2893,0.2893,0.2896,0.2913,0.2914,0.2896,0.2897,0.2897,0.2897,0,0,0,0,0,0,0,0.288,0.2882,0.2898,0.289,0.2889,0.2886,0.2886,0.2898,0.2894,0.2887,0.2886,0.2887,0.2892,0.2895,0.2896,0.2914,0.2896,0.2897,0.2897,0.2898,0.295,0.2951,0,0,0,0,0,0,0.288,0.2881,0.2898,0.2898,0.2883,0.2887,0.2887,0.2892,0.2894,0.2893,0.2887,0.2886,0.2894,0.2895,0.2896,0.2921,0.2897,0.2898,0.2898,0.2949,0.295,0.2951,0,0,0,0,0,0,0.288,0.2882,0.2897,0.2889,0.2891,0.2888,0.2893,0.2892,0.2895,0.2894,0.2893,0.2891,0.2893,0.2895,0.2909,0.2921,0.2898,0.2899,0.2948,0.295,0.2951,0.2971,0,0,0,0,0,0,0.2879,0.2882,0.2889,0.289,0.2892,0.291,0.2894,0.2893,0.2897,0.2895,0.2897,0.2897,0.2893,0.2908,0.291,0.2922,0.29,0.2947,0.2949,0.295,0.2969,0.2972,0.2975,0,0,0,0,0,0.2879,0.2894,0.289,0.2892,0.29,0.2911,0.2912,0.2907,0.2898,0.2906,0.2905,0.2897,0.2919,0.291,0.2912,0.2924,0.2946,0.2948,0.295,0.2967,0.2972,0.2975,0,0,0,0,0,0,0.2895,0.2894,0.2889,0.2905,0.2908,0.2908,0.2918,0.2911,0.2917,0.2915,0.2909,0.2909,0.2926,0.2926,0.2915,0.2945,0.2931,0.2934,0.2944,0.2948,0.2951,0.2951,0.2901,0,0,0,0,0,0.2901,0.2909,0.2907,0.2922,0.2924,0.292,0.2925,0.2921,0.2924,0.2925,0.2925,0.2929,0.2937,0.2942,0.2949,0.2969,0.297,0.2978,0.2982,0.2984,0.2987,0.2999,0.3003,0.2957,0.2957,0.2957,0,0,0.2912,0.2913,0.2918,0.2925,0.2927,0.2937,0.2922,0.2932,0.2939,0.2926,0.2941,0.2941,0.2945,0.2962,0.297,0.2963,0.3,0.2987,0.2989,0.299,0.3001,0.3006,0.3009,0.2958,0.2958,0.2958,0,0,0.2938,0.2939,0.2952,0.2954,0.2957,0.2955,0.2958,0.2959,0.2959,0.2973,0.2964,0.2973,0.2986,0.299,0.2993,0.3022,0.3015,0.3024,0.3042,0.3053,0.3057,0.306,0.3072,0.3076,0.3027,0.3027,0.3027,0,0.2952,0.2965,0.2959,0.297,0.2974,0.2963,0.2977,0.298,0.2985,0.2988,0.2981,0.2999,0.3,0.3019,0.3026,0.3029,0.3033,0.3025,0.3057,0.306,0.3063,0.3074,0.3078,0.3028,0.3028,0.3028,0.3028,0,0.2983,0.2992,0.3003,0.3008,0.3013,0.3026,0.3022,0.3028,0.3024,0.3023,0.3038,0.3039,0.3048,0.3051,0.3047,0.307,0.3066,0.3058,0.3045,0.3069,0.3079,0.3083,0.303,0.3029,0.3029,0.3029,0,0,0.302,0.3022,0.3026,0.3029,0.3032,0.304,0.3052,0.306,0.3066,0.307,0.3081,0.3094,0.3086,0.309,0.3086,0.3096,0.3121,0.3087,0.3087,0.3094,0.3149,0.3156,0.3161,0.3116,0.3117,0.3118,0.3149,0,0.3046,0.3067,0.3063,0.3083,0.3093,0.3083,0.3094,0.3098,0.3097,0.3106,0.3105,0.3115,0.3103,0.3106,0.3116,0.3116,0.3132,0.3113,0.3128,0.3128,0.3128,0.3166,0.3173,0.3203,0.3153,0.3153,0.3154,0,0.308,0.3086,0.3108,0.3111,0.3115,0.3125,0.3132,0.314,0.3144,0.3143,0.3149,0.3143,0.3156,0.3142,0.3161,0.3149,0.3154,0.3156,0.3157,0.3159,0.3143,0.317,0.3212,0.3217,0.316,0.3159,0.3159,0,0.3107,0.312,0.3136,0.3138,0.3141,0.3149,0.3151,0.3154,0.316,0.3166,0.317,0.3178,0.3183,0.319,0.3187,0.3177,0.3207,0.3193,0.3208,0.3208,0.3216,0.3216,0.326,0.3217,0.3217,0.3217,0.3217,0,0.3138,0.3152,0.3148,0.3157,0.3173,0.3168,0.3184,0.3185,0.3188,0.3198,0.319,0.32,0.3195,0.3205,0.3203,0.322,0.3222,0.3222,0.3222,0.3224,0.3224,0.3228,0.3227,0.3218,0.3218,0.3218,0.3218,0,0.3171,0.3168,0.3184,0.3186,0.3187,0.3199,0.3201,0.321,0.3209,0.3223,0.3225,0.3224,0.3235,0.3233,0.3245,0.3244,0.3266,0.3262,0.3265,0.3264,0.328,0.328,0.333,0.3337,0.3288,0.3289,0.3289,0,0.3191,0.3202,0.3205,0.3212,0.3214,0.3224,0.323,0.3225,0.3231,0.3238,0.3247,0.3257,0.3266,0.3284,0.3285,0.3295,0.3292,0.3309,0.3294,0.3296,0.3294,0.3294,0.3296,0.3313,0.3313,0.3314,0.3314,0,0.3229,0.3227,0.3236,0.3244,0.3251,0.3257,0.3263,0.3269,0.3265,0.3272,0.3284,0.329,0.3303,0.3315,0.3324,0.3326,0.332,0.3319,0.3323,0.3326,0.3328,0.3329,0.3275,0.3318,0.3318,0.3317,0.3317,0.3317,0.3257,0.3267,0.3271,0.3281,0.3285,0.3291,0.33,0.3301,0.331,0.332,0.3317,0.333,0.3335,0.3347,0.3351,0.3362,0.3356,0.3362,0.3364,0.3366,0.3368,0.3325,0.3364,0.3364,0.3363,0.3363,0.3363,0,0.3296,0.3298,0.3307,0.3316,0.3324,0.3317,0.3323,0.3331,0.3342,0.3348,0.3356,0.337,0.3381,0.3383,0.3394,0.3402,0.34,0.3406,0.3406,0.3407,0.3373,0.3368,0.3407,0.3407,0.3407,0.3407,0.3407,0.3407,0.3317,0.3334,0.3333,0.3352,0.3354,0.3367,0.3371,0.3377,0.3381,0.3397,0.3406,0.3407,0.3412,0.3423,0.3433,0.3433,0.3438,0.3445,0.3445,0.3413,0.3409,0.3405,0.3401,0.3446,0.3446,0.3478,0.3479,0.3479]}]]